Skip Page Navigation
NASA JPL Caltech
NASA Logo - Jet Propulsion Laboratory + View the NASA Portal
+ Near-Earth Object (NEO) Program
Search JPL
JPL Home Earth Solar System Stars & Galaxies Technology
JPL Solar System Dynamics
BODIES ORBITS EPHEMERIDES TOOLS PHYSICAL DATA DISCOVERY FAQ SITE MAP
JPL Small-Body Database Browser
Search: [ help ]  
39427 Charlottebronte (3360 T-2)
Classification: Outer Main-belt Asteroid          SPK-ID: 2039427
Ephemeris | Orbit Diagram | Orbital Elements | Physical Parameters | Discovery Circumstances | Close-Approach Data ]

[ show orbit diagram ]
Orbital Elements at Epoch 2457400.5 (2016-Jan-13.0) TDB
Reference: JPL 16 (heliocentric ecliptic J2000)
 Element Value Uncertainty (1-sigma)   Units 
e .1869275984695541 6.056e-08  
a 3.97631237354104 7.0489e-08 au
q 3.233029850790241 2.3473e-07 au
i 3.873623596076911 8.43e-06 deg
node 68.55847533078459 9.2927e-05 deg
peri 243.0200733179215 9.5895e-05 deg
M 155.1474928403281 2.4669e-05 deg
tp 2456152.365379013394
(2012-Aug-12.86537901)
0.00019396 JED
period 2896.137445273511
7.93
7.701e-05
2.108e-07
d
yr
n .1243034927736317 3.3053e-09 deg/d
Q 4.71959489629184 8.3665e-08 au
  Orbit Determination Parameters
   # obs. used (total)      857  
   data-arc span      15430 days (42.25 yr)  
   first obs. used      1973-09-19  
   last obs. used      2015-12-18  
   planetary ephem.      DE431  
   SB-pert. ephem.      SB431-BIG16  
   condition code      0  
   fit RMS      .54122  
   data source      ORB  
   producer      Otto Matic  
   solution date      2016-Jan-04 14:37:54  

Additional Information
 Earth MOID = 2.21948 au 
 Jupiter MOID = .602743 au 
 T_jup = 3.022 
[ show covariance matrix ]

Ephemeris | Orbit Diagram | Orbital Elements | Physical Parameters | Discovery Circumstances | Close-Approach Data ]

Physical Parameter Table
Parameter Symbol Value Units Sigma Reference Notes
absolute magnitude H 12.5 mag n/a MPO267838  

39427 Charlottebrontë           Discovered 1973 Sept. 25 by C. J. van Houten and I. van Houten-Groeneveld on Palomar Schmidt plates taken by T. Gehrels.
Charlotte Brontë (1816-1855) was a renowned English novelist and poet, best known for her remarkable work Jane Eyre.
NOTE: some special characters may not display properly (any characters within {} are an attempt to place the proper accent above a character)
Reference: 20060219/MPCPages.arcLast Updated: 2010-06-03

[ show close-approach data ]
Alternate Designations
 3360 T-2 = 1997 TF28 = 1998 XV8 = 2001 DF32 
Ephemeris | Orbit Diagram | Orbital Elements | Physical Parameters | Discovery Circumstances | Close-Approach Data ]
ABOUT SSD CREDITS/AWARDS PRIVACY/COPYRIGHT GLOSSARY LINKS
FirstGov 2016-Feb-10 04:42 UT
(server date/time)  
NASA Home Page
Site Manager:   Ryan S. Park
Webmaster  Alan B. Chamberlin